Weather History for Siofok, Hungary

Change the Weather History Date:

Thursday, January 16, 2014

  Actual Average Record
Temperature  
Mean Temperature 40 °F -  
Max Temperature 49 °F - - ()
Min Temperature 30 °F - - ()
Degree Days  
Heating Degree Days 26    
Moisture  
Dew Point 33 °F    
Average Humidity 76    
Maximum Humidity 95    
Minimum Humidity 45    
Precipitation  
Precipitation 0.00 in - - ()
Sea Level Pressure  
Sea Level Pressure 29.97 in    
Wind  
Wind Speed 4 mph ()    
Max Wind Speed 11 mph    
Max Gust Speed -    
Visibility 5.4 miles    
Events      
T = Trace of Precipitation, MM = Missing Value Source: Averaged Metar Reports

Daily Weather History Graph

Daily Weather History Graph

Search for Another Location

Airport:

Trip Planner

Search our weather history database for the weather conditions in past years. The results will help you decide how hot, cold, wet, or windy it might be!

Date:

Astronomy

Jan. 16, 2014 Rise Set
Actual Time 7:28 AM CET 4:27 PM CET
Civil Twilight 6:54 AM CET 5:01 PM CET
Nautical Twilight 6:16 AM CET 5:38 PM CET
Astronomical Twilight 5:40 AM CET 6:15 PM CET
Moon 5:08 PM CET (1/16) 7:06 AM CET (1/16)
Length of Visible Light 10h 06m
Length of Day
8h 58m
Full, 100% of the Moon is Illuminated
Jan 16
Full
Jan 24
Last Quarter
Jan 30
New
Feb 6
First Quarter
Feb 15
Full

Hourly Weather History & Observations

Time (CET) Temp. Dew Point Humidity Pressure Visibility Wind Dir Wind Speed Gust Speed Precip Events Conditions
12:00 AM 37 °F 35 °F 91% 30.01 in 7 mi WSW 6.7 mph - -   Partly Cloudy
1:00 AM 36 °F 34 °F 91% 30.01 in 7 mi WSW 6.7 mph - -   Partly Cloudy
2:00 AM 35 °F 33 °F 90% 30.02 in 7 mi SW 4.5 mph - -   Partly Cloudy
3:00 AM 33 °F 32 °F 94% 30.02 in 7 mi South 2.2 mph - -   Partly Cloudy
4:00 AM 32 °F 31 °F 92% 30.02 in 4 mi SW 2.2 mph - -   Partly Cloudy
5:00 AM 31 °F 30 °F 95% 30.01 in 2 mi Calm Calm - -   Mist
6:00 AM 30 °F 29 °F 94% 30.02 in 2 mi SSW 2.2 mph - -   Mist
7:00 AM 31 °F 29 °F 92% 30.03 in 2 mi Calm Calm - -   Mist
8:00 AM 30 °F 29 °F 93% 30.03 in 2 mi ESE 2.2 mph - -   Mist
9:00 AM 32 °F 31 °F 95% 30.04 in - Calm Calm - -  
10:00 AM 34 °F 32 °F 89% 30.04 in - Calm Calm - -  
11:00 AM 36 °F 34 °F 91% 30.02 in - ENE 2.2 mph - -  
12:00 PM 45 °F 35 °F 56% 30.00 in - SSW 8.9 mph - -  
1:00 PM 45 °F 34 °F 54% 29.97 in - SSW 8.9 mph - -  
2:00 PM 48 °F 34 °F 47% 29.95 in - South 8.9 mph - -  
3:00 PM 49 °F 34 °F 45% 29.94 in - South 6.7 mph - -  
4:00 PM 47 °F 35 °F 53% 29.93 in - South 6.7 mph - -  
5:00 PM 45 °F 35 °F 59% 29.93 in - SSE 6.7 mph - -  
6:00 PM 44 °F 35 °F 61% 29.92 in - SSE 6.7 mph - -  
7:00 PM 42 °F 36 °F 71% 29.91 in 7 mi SSE 6.7 mph - -   Partly Cloudy
8:00 PM 41 °F 36 °F 74% 29.90 in 7 mi SSE 6.7 mph - -   Partly Cloudy
9:00 PM 42 °F 36 °F 72% 29.89 in 7 mi South 4.5 mph - -   Partly Cloudy
10:00 PM 44 °F 36 °F 66% 29.88 in 7 mi South 11.2 mph - -   Partly Cloudy
11:00 PM 44 °F 36 °F 64% 29.87 in 7 mi SSW 11.2 mph - -   Partly Cloudy